| time (UTC) | temp C | wind direction | speed KPH | gust KPH | rain 1hr cm | rain 24hr cm | rain mn cm | humidity % | barometer mb |
| 20260507171552 | 12 | 94 | 3.2 | 12.9 | 0.00 | 0.00 | 0.00 | 72 | 1015.4 |
| 20260507170057 | 12 | 161 | 3.2 | 11.3 | 0.00 | 0.00 | 0.00 | 72 | 1015.4 |
| 20260507164551 | 12 | 114 | 3.2 | 16.1 | 0.00 | 0.00 | 0.00 | 74 | 1015.5 |
| 20260507163056 | 11 | 127 | 1.6 | 9.7 | 0.00 | 0.00 | 0.00 | 78 | 1015.5 |
| 20260507161557 | 11 | 173 | 3.2 | 12.9 | 0.00 | 0.00 | 0.00 | 78 | 1015.5 |
| 20260507160050 | 11 | 89 | 3.2 | 17.7 | 0.00 | 0.00 | 0.00 | 78 | 1015.5 |
| 20260507154555 | 11 | 115 | 1.6 | 11.3 | 0.00 | 0.00 | 0.00 | 75 | 1015.6 |
| 20260507153102 | 12 | 116 | 1.6 | 14.5 | 0.00 | 0.00 | 0.00 | 65 | 1015.6 |
| 20260507151552 | 12 | 115 | 4.8 | 14.5 | 0.00 | 0.00 | 0.00 | 62 | 1015.5 |
| 20260507150105 | 12 | 98 | 3.2 | 19.3 | 0.00 | 0.00 | 0.00 | 62 | 1015.6 |
| 20260507144549 | 13 | 233 | 4.8 | 12.9 | 0.00 | 0.00 | 0.00 | 62 | 1015.7 |
| 20260507143103 | 13 | 217 | 3.2 | 17.7 | 0.00 | 0.00 | 0.00 | 62 | 1015.7 |
| 20260507141557 | 13 | 237 | 4.8 | 12.9 | 0.00 | 0.00 | 0.00 | 62 | 1015.7 |
| 20260507140101 | 13 | 162 | 4.8 | 8.0 | 0.00 | 0.00 | 0.00 | 60 | 1015.8 |
| 20260507134553 | 13 | 319 | 3.2 | 12.9 | 0.00 | 0.00 | 0.00 | 60 | 1015.8 |
| 20260507133051 | 14 | 274 | 1.6 | 12.9 | 0.00 | 0.00 | 0.00 | 61 | 1015.8 |
| 20260507131551 | 14 | 118 | 3.2 | 12.9 | 0.00 | 0.00 | 0.00 | 59 | 1015.8 |
| 20260507124552 | 14 | 160 | 0.0 | 0.0 | 0.00 | 0.00 | 0.00 | 61 | 1015.7 |
| 20260507123049 | 13 | 123 | 14.5 | 0.0 | 0.00 | 0.00 | 0.00 | 60 | 1015.6 |
| 20260507121554 | 13 | 136 | 4.8 | 14.5 | 0.00 | 0.00 | 0.00 | 59 | 1015.6 |
| 20260507120056 | 12 | 160 | 4.8 | 16.1 | 0.00 | 0.00 | 0.00 | 64 | 1015.8 |
| 20260507114551 | 12 | 96 | 4.8 | 16.1 | 0.00 | 0.00 | 0.00 | 64 | 1016.0 |
| 20260507113052 | 11 | 101 | 8.0 | 16.1 | 0.00 | 0.00 | 0.00 | 65 | 1016.1 |
| 20260507111551 | 11 | 122 | 4.8 | 14.5 | 0.00 | 0.00 | 0.00 | 66 | 1016.3 |
| 20260507110059 | 12 | 138 | 4.8 | 0.0 | 0.00 | 0.00 | 0.00 | 66 | 1016.4 |
| 20260507104555 | 12 | 0.0 | 0.0 | 0.00 | 0.00 | 0.00 | 65 | 1016.4 | |
| 20260507103115 | 12 | 0.0 | 0.0 | 0.00 | 0.00 | 0.00 | 66 | 1016.5 | |
| 20260507101553 | 11 | 226 | 9.7 | 0.0 | 0.00 | 0.00 | 0.00 | 66 | 1016.4 |
| 20260507100107 | 11 | 103 | 4.8 | 14.5 | 0.00 | 0.00 | 0.00 | 66 | 1016.6 |
| 20260507094549 | 11 | 65 | 3.2 | 14.5 | 0.00 | 0.00 | 0.00 | 67 | 1016.5 |
| 20260507093045 | 11 | 131 | 6.4 | 19.3 | 0.00 | 0.00 | 0.00 | 68 | 1016.5 |
| 20260507091550 | 10 | 190 | 8.0 | 22.5 | 0.00 | 0.00 | 0.00 | 68 | 1016.5 |
| 20260507090054 | 10 | 217 | 4.8 | 14.5 | 0.00 | 0.00 | 0.00 | 69 | 1016.6 |
| 20260507084548 | 10 | 164 | 3.2 | 16.1 | 0.00 | 0.00 | 0.00 | 70 | 1016.6 |
| 20260507083049 | 10 | 146 | 6.4 | 14.5 | 0.00 | 0.00 | 0.00 | 71 | 1016.6 |
| 20260507081555 | 10 | 139 | 4.8 | 16.1 | 0.00 | 0.00 | 0.00 | 72 | 1016.5 |
| 20260507080055 | 9 | 90 | 6.4 | 17.7 | 0.00 | 0.00 | 0.00 | 73 | 1016.7 |
| 20260507074548 | 9 | 93 | 3.2 | 11.3 | 0.00 | 0.00 | 0.00 | 74 | 1016.7 |
| 20260507073049 | 9 | 133 | 6.4 | 14.5 | 0.00 | 0.00 | 0.00 | 74 | 1016.6 |
| 20260507071559 | 8 | 131 | 3.2 | 9.7 | 0.00 | 0.00 | 0.00 | 76 | 1016.7 |
| 20260507064556 | 7 | 162 | 1.6 | 4.8 | 0.00 | 0.00 | 0.00 | 77 | 1016.7 |
| 20260507063048 | 7 | 125 | 1.6 | 4.8 | 0.00 | 0.00 | 0.00 | 79 | 1016.7 |
| 20260507061552 | 6 | 118 | 1.6 | 6.4 | 0.00 | 0.00 | 0.00 | 81 | 1016.6 |
| 20260507060058 | 5 | 127 | 1.6 | 6.4 | 0.00 | 0.00 | 0.00 | 83 | 1016.5 |
| 20260507054607 | 4 | 98 | 1.6 | 4.8 | 0.00 | 0.00 | 0.00 | 85 | 1016.4 |
| 20260507053103 | 3 | 118 | 1.6 | 4.8 | 0.00 | 0.00 | 0.00 | 85 | 1016.4 |
| 20260507051555 | 2 | 132 | 0.0 | 8.0 | 0.00 | 0.00 | 0.00 | 86 | 1016.4 |
| 20260507050050 | 2 | 124 | 1.6 | 6.4 | 0.00 | 0.00 | 0.00 | 86 | 1016.5 |
| 20260507044554 | 2 | 154 | 0.0 | 6.4 | 0.00 | 0.05 | 0.00 | 86 | 1016.4 |
| 20260507043047 | 3 | 112 | 0.0 | 4.8 | 0.00 | 0.05 | 0.00 | 87 | 1016.3 |
| 20260507041600 | 2 | 0 | 0.0 | 1.6 | 0.00 | 0.05 | 0.00 | 88 | 1016.1 |
| 20260507040052 | 2 | 0 | 0.0 | 3.2 | 0.00 | 0.05 | 0.00 | 87 | 1016.3 |
| 20260507034548 | 2 | 148 | 1.6 | 4.8 | 0.00 | 0.05 | 0.00 | 87 | 1016.3 |
| 20260507033048 | 2 | 0 | 0.0 | 3.2 | 0.00 | 0.05 | 0.00 | 87 | 1016.3 |
| 20260507031548 | 1 | 139 | 0.0 | 3.2 | 0.00 | 0.05 | 0.00 | 87 | 1016.5 |
| 20260507030052 | 1 | 0 | 0.0 | 1.6 | 0.00 | 0.05 | 0.00 | 87 | 1016.5 |
| 20260507024552 | 1 | 123 | 1.6 | 8.0 | 0.00 | 0.05 | 0.00 | 86 | 1016.4 |
| 20260507023051 | 2 | 124 | 0.0 | 6.4 | 0.00 | 0.05 | 0.00 | 86 | 1016.4 |
| 20260507021600 | 2 | 103 | 0.0 | 3.2 | 0.00 | 0.05 | 0.00 | 85 | 1016.5 |
| 20260507020108 | 2 | 154 | 0.0 | 4.8 | 0.00 | 0.05 | 0.00 | 85 | 1016.5 |
| 20260507014617 | 2 | 126 | 0.0 | 4.8 | 0.00 | 0.05 | 0.00 | 85 | 1016.4 |
| 20260507013050 | 2 | 159 | 0.0 | 3.2 | 0.00 | 0.05 | 0.00 | 86 | 1016.5 |
| 20260507011558 | 2 | 117 | 0.0 | 3.2 | 0.00 | 0.05 | 0.00 | 86 | 1016.6 |
| 20260507010055 | 2 | 0 | 0.0 | 3.2 | 0.00 | 0.05 | 0.00 | 86 | 1016.6 |
| 20260507004549 | 2 | 165 | 0.0 | 1.6 | 0.00 | 0.05 | 0.00 | 87 | 1016.5 |
| 20260507003047 | 2 | 144 | 1.6 | 3.2 | 0.00 | 0.05 | 0.00 | 86 | 1016.5 |
| 20260507001602 | 2 | 131 | 0.0 | 3.2 | 0.00 | 0.05 | 0.00 | 86 | 1016.6 |
| 20260507000106 | 2 | 140 | 0.0 | 3.2 | 0.00 | 0.05 | 0.00 | 84 | 1016.5 |
| 20260506234613 | 3 | 163 | 0.0 | 1.6 | 0.00 | 0.05 | 0.00 | 84 | 1016.6 |
| 20260506233053 | 3 | 0 | 0.0 | 1.6 | 0.00 | 0.05 | 0.00 | 83 | 1016.8 |
| 20260506231545 | 3 | 145 | 0.0 | 1.6 | 0.00 | 0.05 | 0.00 | 83 | 1016.8 |
| 20260506224552 | 3 | 210 | 0.0 | 3.2 | 0.00 | 0.05 | 0.05 | 84 | 1016.6 |
| 20260506223044 | 3 | 0 | 0.0 | 1.6 | 0.00 | 0.05 | 0.05 | 83 | 1016.7 |
| 20260506221555 | 4 | 112 | 0.0 | 1.6 | 0.00 | 0.05 | 0.05 | 83 | 1016.7 |
| 20260506220049 | 4 | 0 | 0.0 | 1.6 | 0.00 | 0.05 | 0.05 | 82 | 1016.8 |
| 20260506214546 | 4 | 0 | 0.0 | 3.2 | 0.00 | 0.05 | 0.05 | 82 | 1016.7 |
| 20260506213054 | 5 | 188 | 0.0 | 1.6 | 0.00 | 0.05 | 0.05 | 81 | 1016.8 |
| 20260506211553 | 5 | 0 | 0.0 | 1.6 | 0.00 | 0.05 | 0.05 | 79 | 1016.8 |
| 20260506210049 | 5 | 0 | 0.0 | 3.2 | 0.00 | 0.05 | 0.05 | 78 | 1016.9 |
| 20260506204551 | 6 | 0 | 0.0 | 1.6 | 0.00 | 0.05 | 0.05 | 78 | 1016.6 |
| 20260506203047 | 6 | 127 | 0.0 | 4.8 | 0.00 | 0.05 | 0.05 | 77 | 1016.9 |
| 20260506201545 | 6 | 0 | 0.0 | 1.6 | 0.00 | 0.05 | 0.05 | 76 | 1016.8 |
| 20260506200051 | 6 | 139 | 0.0 | 1.6 | 0.00 | 0.05 | 0.05 | 75 | 1016.7 |
| 20260506194546 | 7 | 0 | 0.0 | 1.6 | 0.00 | 0.05 | 0.05 | 73 | 1016.7 |
| 20260506193055 | 7 | 0 | 0.0 | 4.8 | 0.00 | 0.05 | 0.05 | 71 | 1016.5 |
| 20260506191559 | 8 | 83 | 0.0 | 6.4 | 0.00 | 0.05 | 0.05 | 71 | 1016.6 |
| 20260506190052 | 8 | 87 | 0.0 | 9.7 | 0.00 | 0.05 | 0.05 | 70 | 1016.4 |
| 20260506184556 | 8 | 105 | 0.0 | 6.4 | 0.00 | 0.05 | 0.05 | 69 | 1016.4 |
| 20260506183102 | 8 | 102 | 1.6 | 6.4 | 0.00 | 0.05 | 0.05 | 68 | 1016.5 |
| 20260506181603 | 8 | 0 | 0.0 | 4.8 | 0.00 | 0.05 | 0.05 | 68 | 1016.4 |
| 20260506180054 | 8 | 0 | 0.0 | 4.8 | 0.00 | 0.05 | 0.05 | 68 | 1016.3 |
| 20260506174545 | 9 | 57 | 0.0 | 6.4 | 0.00 | 0.05 | 0.05 | 67 | 1016.2 |
| 20260506173119 | 9 | 88 | 0.0 | 8.0 | 0.00 | 0.05 | 0.05 | 67 | 1016.3 |